This is the latest recevied weather packets stored in our database for station/object ALANSN-2. If no packets are shown the sender has not sent any weather packets the latest 10 day(s).
| Time | Temp. | Humidity | Pressure | Rain* | Wind** | Luminosity | Snow |
|---|---|---|---|---|---|---|---|
| 1787603822 | 21.11° C | 78% | 1026.6 hPa | 0 mm | - | 138 W/m² | - |
| 1787603520 | 21.11° C | 79% | 1026.5 hPa | 0 mm | - | 146 W/m² | - |
| 1787603218 | 21.11° C | 78% | 1026.6 hPa | 0 mm | - | 58 W/m² | - |
| 1787602919 | 21.11° C | 78% | 1026.6 hPa | 0 mm | - | 58 W/m² | - |
| 1787602620 | 21.11° C | 77% | 1026.3 hPa | 0 mm | - | 100 W/m² | - |
| 1787602318 | 21.11° C | 77% | 1026.1 hPa | 0 mm | - | 79 W/m² | - |
| 1787602020 | 21.11° C | 77% | 1026.1 hPa | 0 mm | - | 79 W/m² | - |
| 1787601719 | 21.11° C | 76% | 1026.2 hPa | 0 mm | - | 148 W/m² | - |
| 1787601421 | 21.67° C | 76% | 1026.3 hPa | 0 mm | - | 166 W/m² | - |
| 1787601119 | 21.67° C | 76% | 1026.3 hPa | 0 mm | - | 166 W/m² | - |
| 1787600820 | 22.22° C | 75% | 1026.5 hPa | 0 mm | - | 475 W/m² | - |
| 1787600519 | 21.67° C | 77% | 1026.2 hPa | 0 mm | - | 165 W/m² | - |
| 1787600221 | 21.67° C | 77% | 1026.2 hPa | 0 mm | - | 165 W/m² | - |
| 1787599920 | 21.67° C | 76% | 1026.3 hPa | 0 mm | - | 645 W/m² | - |
| 1787599620 | 20.56° C | 78% | 1026.2 hPa | 0 mm | - | 686 W/m² | - |
| 1787599317 | 20.56° C | 78% | 1026.2 hPa | 0 mm | - | 686 W/m² | - |
| 1787599020 | 21.11° C | 78% | 1026.1 hPa | 0 mm | - | 267 W/m² | - |
| 1787598720 | 20.56° C | 79% | 1026.2 hPa | 0 mm | - | 137 W/m² | - |
| 1787598419 | 20.56° C | 79% | 1026.2 hPa | 0 mm | - | 137 W/m² | - |
| 1787598120 | 20.56° C | 79% | 1026.3 hPa | 0 mm | - | 165 W/m² | - |
| 1787597819 | 20.56° C | 79% | 1026.4 hPa | 0 mm | - | 134 W/m² | - |
| 1787597520 | 20.56° C | 79% | 1026.4 hPa | 0 mm | - | 134 W/m² | - |
| 1787597220 | 20.56° C | 79% | 1026.3 hPa | 0 mm | - | 183 W/m² | - |
| 1787596920 | 20° C | 79% | 1026.3 hPa | 0 mm | - | 157 W/m² | - |
| 1787596620 | 20.56° C | 78% | 1026.4 hPa | 0 mm | - | 186 W/m² | - |
* Rain latest hour (hover to see other rain measurements)
** Current wind speed in m/s (hover to see current wind gust speed)